CW1172 Weather Reports


time (UTC)temp
C
wind
direction
speed
KPH
gust
KPH
rain 1hr
cm
rain 24hr
cm
rain mn
cm
humidity
%
barometer
mb
20260502163037 19 245 0.0 0.0 0.00 0.00 0.00 51 1010.1
20260502161524 20 360 0.0 0.0 0.00 0.00 0.00 50 1010.1
20260502151528 20 215 0.0 0.0 0.00 0.00 0.00 54 1010.4
20260502123003 20 240 0.0 0.0 0.00 0.00 0.00 56 1012.4
20260502121504 20 218 0.0 0.0 0.00 0.00 0.00 56 1012.4
20260502114608 20 360 0.0 0.0 0.00 0.00 0.00 56 1012.8
20260502113104 20 360 0.0 0.0 0.00 0.00 0.00 56 1012.9
20260502111600 19 188 0.0 0.0 0.00 0.00 0.00 56 1013.0
20260502110055 19 231 0.0 0.0 0.00 0.00 0.00 55 1013.1
20260502104552 19 190 0.0 0.0 0.00 0.00 0.00 56 1013.1
20260502103102 18 202 0.0 0.0 0.00 0.00 0.00 57 1013.3
20260502101559 18 162 0.0 0.0 0.00 0.00 0.00 56 1013.4
20260502100113 18 360 0.0 0.0 0.00 0.00 0.00 58 1013.4
20260502070034 16 169 0.0 0.0 0.00 0.00 0.00 63 1014.5
20260502064533 16 360 0.0 0.0 0.00 0.00 0.00 64 1014.7
20260502063028 15 215 0.0 0.0 0.00 0.00 0.00 65 1014.7
20260502061532 14 159 0.0 0.0 0.00 0.00 0.00 67 1014.8
20260502060021 13 150 0.0 0.0 0.00 0.00 0.00 72 1015.0
20260502054514 11 157 0.0 0.0 0.00 0.00 0.00 76 1015.1
20260502053009 10 156 0.0 0.0 0.00 0.00 0.00 80 1015.3
20260502051520 10 187 0.0 0.0 0.00 0.00 0.00 83 1015.5
20260502050005 9 132 0.0 0.0 0.00 0.00 0.00 85 1015.6
20260502044504 8 157 0.0 0.0 0.00 0.00 0.00 87 1015.8
20260502043003 7 159 0.0 0.0 0.00 0.00 0.00 88 1016.0
20260502041507 7 155 0.0 0.0 0.00 0.00 0.00 89 1016.2
20260502040002 6 148 0.0 0.0 0.00 0.00 0.00 89 1016.5
20260502034558 6 161 0.0 0.0 0.00 0.00 0.00 89 1016.7
20260502033058 5 152 0.0 0.0 0.00 0.00 0.00 88 1016.8
20260502031558 5 141 0.0 0.0 0.00 0.00 0.00 87 1017.0
20260502030057 5 129 0.0 0.0 0.00 0.00 0.00 87 1017.3
20260502024600 6 143 0.0 0.0 0.00 0.00 0.00 86 1017.6
20260502023049 6 145 0.0 0.0 0.00 0.00 0.00 86 1017.8
20260502021550 6 150 0.0 0.0 0.00 0.00 0.00 84 1017.9
20260502020046 6 179 0.0 0.0 0.00 0.00 0.00 84 1018.0
20260502014541 7 144 0.0 0.0 0.00 0.00 0.00 83 1018.4
20260502013040 7 169 0.0 0.0 0.00 0.00 0.00 83 1018.5
20260502011539 8 222 0.0 0.0 0.00 0.00 0.00 83 1018.7
20260502010036 8 173 0.0 0.0 0.00 0.00 0.00 82 1018.8
20260502004535 7 176 0.0 0.0 0.00 0.00 0.00 82 1019.0
20260502003032 7 152 0.0 0.0 0.00 0.00 0.00 80 1019.1
20260502001532 7 168 0.0 0.0 0.00 0.00 0.00 80 1019.1
20260502000030 8 160 0.0 0.0 0.00 0.00 0.00 79 1019.5
20260501234528 8 165 0.0 0.0 0.00 0.00 0.00 78 1019.7
20260501233026 8 171 0.0 0.0 0.00 0.00 0.00 78 1019.8
20260501231527 8 360 0.0 0.0 0.00 0.00 0.00 77 1020.0
20260501230030 8 161 0.0 0.0 0.00 0.00 0.00 75 1020.3
20260501224522 8 161 0.0 0.0 0.00 0.00 0.00 74 1020.4
20260501223020 8 161 0.0 0.0 0.00 0.00 0.00 73 1020.5
20260501221519 9 151 0.0 0.0 0.00 0.00 0.00 72 1020.5
20260501220017 8 152 0.0 0.0 0.00 0.00 0.00 72 1020.6
20260501214515 8 178 0.0 0.0 0.00 0.00 0.00 71 1020.7
20260501213013 10 171 0.0 0.0 0.00 0.00 0.00 69 1020.9
20260501211514 10 171 0.0 0.0 0.00 0.00 0.00 68 1020.9
20260501210012 11 164 0.0 0.0 0.00 0.00 0.00 67 1021.0
20260501204511 11 164 0.0 0.0 0.00 0.00 0.00 67 1021.1
20260501203010 11 165 0.0 0.0 0.00 0.00 0.00 67 1021.3
20260501201510 11 167 0.0 0.0 0.00 0.00 0.00 67 1021.4
20260501200009 11 137 0.0 0.0 0.00 0.00 0.00 65 1021.6
20260501194510 12 176 0.0 0.0 0.00 0.00 0.00 65 1021.7
20260501193006 12 180 0.0 0.0 0.00 0.00 0.00 63 1021.9
20260501191508 12 182 0.0 0.0 0.00 0.00 0.00 61 1021.9
20260501190007 12 194 0.0 0.0 0.00 0.00 0.00 60 1022.1
20260501184515 13 241 0.0 0.0 0.00 0.00 0.00 58 1022.3
20260501183006 13 208 0.0 0.0 0.00 0.00 0.00 57 1022.2
20260501181504 13 213 0.0 0.0 0.00 0.00 0.00 57 1022.4
20260501180003 14 261 0.0 0.0 0.00 0.00 0.00 54 1022.4
20260501174508 15 360 0.0 0.0 0.00 0.00 0.00 52 1022.4
20260501173005 15 246 0.0 0.0 0.00 0.00 0.00 49 1022.5
20260501171502 16 360 0.0 0.0 0.00 0.00 0.00 47 1022.8
20260501170002 17 236 0.0 0.0 0.00 0.00 0.00 43 1022.8
20260501164504 18 360 0.0 0.0 0.00 0.00 0.00 42 1022.9